ASA43GH PANC-CYXY

Flight info

Callsign ASA43GH
Flight time 1h 11m
Altitude 31000
Route TED DCT BGQ J124 GKN DCT TOVAD DCT IGSOM DCT YXY
Aircraft B738/M-SDE2E3FGHIRWXY/LB1

Departure

Time 2026-04-16 08:36
Airport Ted Stevens Anchorage International Airport (PANC)

Arrival

Time 2026-04-16 09:47
Airport Whitehorse / Erik Nielsen International Airport (CYXY)
Time Latitude Longitude Altitude Speed Heading
2026-04-16 08:18 61.17468 -149.98424 110 ft 0 kts 82°
2026-04-16 08:29 61.17466 -149.98455 108 ft 2 kts 85°
2026-04-16 08:30 61.17465 -149.98489 106 ft 2 kts 89°
2026-04-16 08:30 61.17466 -149.98523 107 ft 2 kts 95°
2026-04-16 08:30 61.17468 -149.98557 105 ft 2 kts 109°
2026-04-16 08:30 61.17476 -149.98587 106 ft 2 kts 136°
2026-04-16 08:31 61.17488 -149.98604 106 ft 1 kts 160°
2026-04-16 08:31 61.17491 -149.98607 105 ft 0 kts 160°
2026-04-16 08:31 61.17489 -149.98605 106 ft 1 kts 160°
2026-04-16 08:31 61.17481 -149.98599 106 ft 2 kts 160°
2026-04-16 08:32 61.17467 -149.98588 105 ft 2 kts 159°
2026-04-16 08:32 61.17449 -149.98574 106 ft 3 kts 160°
2026-04-16 08:32 61.17412 -149.98571 108 ft 8 kts 200°
2026-04-16 08:32 61.17345 -149.98659 108 ft 14 kts 213°
2026-04-16 08:33 61.17247 -149.98791 111 ft 19 kts 213°
2026-04-16 08:33 61.17149 -149.99012 112 ft 23 kts 230°
2026-04-16 08:33 61.17124 -149.99334 120 ft 24 kts 269°
2026-04-16 08:33 61.17124 -149.99677 126 ft 23 kts 270°
2026-04-16 08:34 61.17124 -150.00009 132 ft 23 kts 270°
2026-04-16 08:34 61.17123 -150.00330 136 ft 22 kts 269°
2026-04-16 08:34 61.17123 -150.00643 136 ft 21 kts 270°
2026-04-16 08:34 61.17041 -150.00810 134 ft 21 kts 176°
2026-04-16 08:35 61.17006 -150.00804 135 ft 0 kts 175°
2026-04-16 08:35 61.16981 -150.00790 136 ft 8 kts 142°
2026-04-16 08:35 61.16976 -150.00704 136 ft 7 kts 89°
2026-04-16 08:35 61.16977 -150.00368 135 ft 58 kts 90°
2026-04-16 08:36 61.16984 -149.98920 121 ft 140 kts 89°
2026-04-16 08:36 61.17015 -149.96621 629 ft 166 kts 86°
2026-04-16 08:36 61.17110 -149.94335 1772 ft 162 kts 87°
2026-04-16 08:36 61.17232 -149.91849 2363 ft 189 kts 78°
2026-04-16 08:37 61.18026 -149.89480 2622 ft 220 kts 34°
2026-04-16 08:37 61.19579 -149.88774 2961 ft 241 kts 353°
2026-04-16 08:37 61.21254 -149.89450 3458 ft 254 kts 348°
2026-04-16 08:37 61.23059 -149.90074 3914 ft 269 kts 351°
2026-04-16 08:38 61.24919 -149.90614 4754 ft 273 kts 351°
2026-04-16 08:38 61.26818 -149.91095 5690 ft 275 kts 352°
2026-04-16 08:38 61.28744 -149.91532 6579 ft 279 kts 352°
2026-04-16 08:38 61.30692 -149.91937 7433 ft 282 kts 352°
2026-04-16 08:39 61.32632 -149.92317 8304 ft 284 kts 352°
2026-04-16 08:39 61.34613 -149.92689 9161 ft 287 kts 352°
2026-04-16 08:39 61.36620 -149.93057 10016 ft 290 kts 352°
2026-04-16 08:39 61.38667 -149.93430 10521 ft 305 kts 352°
2026-04-16 08:40 61.40849 -149.93830 10715 ft 329 kts 352°
2026-04-16 08:40 61.43176 -149.94247 11263 ft 339 kts 352°
2026-04-16 08:40 61.45557 -149.94430 11996 ft 347 kts
2026-04-16 08:40 61.47854 -149.92768 12768 ft 357 kts 32°
2026-04-16 08:41 61.49593 -149.89033 13557 ft 364 kts 59°
2026-04-16 08:41 61.50637 -149.84149 14231 ft 369 kts 70°
2026-04-16 08:41 61.51501 -149.79012 14781 ft 377 kts 71°
2026-04-16 08:41 61.52348 -149.73759 15381 ft 383 kts 71°
2026-04-16 08:42 61.53187 -149.68487 16006 ft 388 kts 71°
2026-04-16 08:42 61.54050 -149.63075 16630 ft 394 kts 71°
2026-04-16 08:42 61.54933 -149.57584 17254 ft 399 kts 70°
2026-04-16 08:42 61.55832 -149.52025 17849 ft 405 kts 70°
2026-04-16 08:43 61.56746 -149.46400 18492 ft 409 kts 70°
2026-04-16 08:43 61.57657 -149.40801 19110 ft 411 kts 70°
2026-04-16 08:43 61.58590 -149.35062 19607 ft 417 kts 70°
2026-04-16 08:43 61.59532 -149.29255 20095 ft 423 kts 70°
2026-04-16 08:44 61.60486 -149.23365 20606 ft 428 kts 70°
2026-04-16 08:44 61.61450 -149.17392 21122 ft 432 kts 70°
2026-04-16 08:44 61.62408 -149.11434 21625 ft 437 kts 70°
2026-04-16 08:44 61.63386 -149.05334 22148 ft 442 kts 70°
2026-04-16 08:45 61.64374 -148.99151 22642 ft 447 kts 70°
2026-04-16 08:45 61.65366 -148.92914 23137 ft 452 kts 70°
2026-04-16 08:45 61.66365 -148.86614 23598 ft 456 kts 70°
2026-04-16 08:45 61.67373 -148.80233 24001 ft 460 kts 70°
2026-04-16 08:46 61.68372 -148.73891 24427 ft 464 kts 70°
2026-04-16 08:46 61.69391 -148.67396 24770 ft 469 kts 70°
2026-04-16 08:46 61.70423 -148.60801 25092 ft 475 kts 70°
2026-04-16 08:46 61.71457 -148.54164 25506 ft 477 kts 70°
2026-04-16 08:47 61.72492 -148.47504 25903 ft 481 kts 70°
2026-04-16 08:47 61.73538 -148.40758 26246 ft 486 kts 70°
2026-04-16 08:47 61.74582 -148.34034 26603 ft 489 kts 70°
2026-04-16 08:47 61.75635 -148.27155 26943 ft 494 kts 70°
2026-04-16 08:48 61.76686 -148.20211 27192 ft 499 kts 70°
2026-04-16 08:48 61.77741 -148.13208 27547 ft 501 kts 70°
2026-04-16 08:48 61.78805 -148.06161 27922 ft 504 kts 70°
2026-04-16 08:48 61.79880 -147.99052 28229 ft 508 kts 70°
2026-04-16 08:49 61.80947 -147.91972 28530 ft 512 kts 70°
2026-04-16 08:49 61.82030 -147.84774 28939 ft 511 kts 70°
2026-04-16 08:49 61.83101 -147.77591 29402 ft 513 kts 70°
2026-04-16 08:49 61.84169 -147.70383 29873 ft 513 kts 70°
2026-04-16 08:50 61.85238 -147.63138 30263 ft 513 kts 70°
2026-04-16 08:50 61.86284 -147.56008 30637 ft 512 kts 70°
2026-04-16 08:50 61.87336 -147.48820 31035 ft 511 kts 70°
2026-04-16 08:50 61.88395 -147.41568 31012 ft 516 kts 70°
2026-04-16 08:51 61.90501 -147.27039 31025 ft 509 kts 70°
2026-04-16 08:51 61.92550 -147.12772 31052 ft 508 kts 70°
2026-04-16 08:52 61.94603 -146.98372 31045 ft 510 kts 70°
2026-04-16 08:52 61.96648 -146.83893 31044 ft 512 kts 70°
2026-04-16 08:53 61.98680 -146.69374 31026 ft 511 kts 70°
2026-04-16 08:53 62.00710 -146.54758 31040 ft 524 kts 71°
2026-04-16 08:54 62.02789 -146.39663 31025 ft 536 kts 71°
2026-04-16 08:54 62.04877 -146.24325 31047 ft 546 kts 71°
2026-04-16 08:55 62.06989 -146.08652 31058 ft 549 kts 71°
2026-04-16 08:55 62.09078 -145.92993 31041 ft 546 kts 71°
2026-04-16 08:56 62.11131 -145.77468 31025 ft 545 kts 71°
2026-04-16 08:56 62.13178 -145.61863 31029 ft 543 kts 71°
2026-04-16 08:57 62.14679 -145.46111 31030 ft 546 kts 86°
2026-04-16 08:57 62.14086 -145.29923 31024 ft 546 kts 104°
2026-04-16 08:58 62.12337 -145.14119 31027 ft 547 kts 104°
2026-04-16 08:58 62.10651 -144.98309 31029 ft 548 kts 104°
2026-04-16 08:59 62.08993 -144.82373 31046 ft 550 kts 103°
2026-04-16 08:59 62.07336 -144.66498 31038 ft 550 kts 104°
2026-04-16 09:00 62.05642 -144.50555 31069 ft 549 kts 104°
2026-04-16 09:00 62.03947 -144.34762 31084 ft 550 kts 103°
2026-04-16 09:01 62.01340 -144.10877 31075 ft 552 kts 104°
2026-04-16 09:02 61.99568 -143.94930 31065 ft 552 kts 104°
2026-04-16 09:02 61.97804 -143.79146 31077 ft 549 kts 104°
2026-04-16 09:03 61.96020 -143.63410 31060 ft 549 kts 104°
2026-04-16 09:03 61.94212 -143.47605 31056 ft 550 kts 104°
2026-04-16 09:04 61.92496 -143.31824 31045 ft 551 kts 97°
2026-04-16 09:04 61.92295 -143.23708 31067 ft 548 kts 85°
2026-04-16 09:04 61.92617 -143.15657 31059 ft 547 kts 82°
2026-04-16 09:05 61.93306 -142.99616 31076 ft 548 kts 82°
2026-04-16 09:05 61.93891 -142.83474 31060 ft 546 kts 83°
2026-04-16 09:06 61.94411 -142.67342 31036 ft 547 kts 83°
2026-04-16 09:06 61.94909 -142.51302 31043 ft 545 kts 83°
2026-04-16 09:07 61.95414 -142.35222 31041 ft 545 kts 83°
2026-04-16 09:07 61.95885 -142.19112 31033 ft 545 kts 83°
2026-04-16 09:08 61.96334 -142.03126 31091 ft 544 kts 83°
2026-04-16 09:08 61.96775 -141.87066 31031 ft 543 kts 83°
2026-04-16 09:09 61.97194 -141.71120 31018 ft 541 kts 83°
2026-04-16 09:09 61.97595 -141.55145 31007 ft 540 kts 83°
2026-04-16 09:10 61.97976 -141.39195 31011 ft 539 kts 84°
2026-04-16 09:10 61.98335 -141.23351 31011 ft 538 kts 84°
2026-04-16 09:11 61.98679 -141.07424 31023 ft 537 kts 84°
2026-04-16 09:11 61.99002 -140.91579 31079 ft 538 kts 84°
2026-04-16 09:12 61.99308 -140.75667 31024 ft 538 kts 84°
2026-04-16 09:12 61.99594 -140.59747 31021 ft 536 kts 84°
2026-04-16 09:13 61.99861 -140.43993 31009 ft 535 kts 84°
2026-04-16 09:13 62.00114 -140.28143 31023 ft 535 kts 84°
2026-04-16 09:14 62.00346 -140.12289 31024 ft 535 kts 85°
2026-04-16 09:14 62.00558 -139.96561 31023 ft 534 kts 85°
2026-04-16 09:15 62.00753 -139.80718 31040 ft 534 kts 85°
2026-04-16 09:15 62.00930 -139.64977 31027 ft 533 kts 85°
2026-04-16 09:16 62.01090 -139.49167 31027 ft 533 kts 85°
2026-04-16 09:16 62.01231 -139.33347 31028 ft 532 kts 85°
2026-04-16 09:17 62.01353 -139.17684 31026 ft 532 kts 85°
2026-04-16 09:17 62.01458 -139.01926 31031 ft 531 kts 85°
2026-04-16 09:18 62.01544 -138.86281 31034 ft 531 kts 85°
2026-04-16 09:18 62.01600 -138.73186 31072 ft 531 kts 86°
2026-04-16 09:19 62.01655 -138.57453 31046 ft 529 kts 86°
2026-04-16 09:19 62.01692 -138.41776 31050 ft 528 kts 86°
2026-04-16 09:20 62.01711 -138.26124 31034 ft 528 kts 86°
2026-04-16 09:20 62.01711 -138.10592 31055 ft 526 kts 86°
2026-04-16 09:20 62.01702 -138.02907 31028 ft 510 kts 86°
2026-04-16 09:21 62.01687 -137.95489 31017 ft 493 kts 86°
2026-04-16 09:21 62.01656 -137.80861 31047 ft 492 kts 86°
2026-04-16 09:22 62.01614 -137.66330 31041 ft 484 kts 86°
2026-04-16 09:22 62.01585 -137.59287 30807 ft 478 kts 86°
2026-04-16 09:22 62.01553 -137.52236 30474 ft 473 kts 86°
2026-04-16 09:22 62.01518 -137.45265 30097 ft 470 kts 86°
2026-04-16 09:23 62.01480 -137.38316 29652 ft 466 kts 86°
2026-04-16 09:23 62.01439 -137.31438 29227 ft 462 kts 86°
2026-04-16 09:23 62.01395 -137.24613 28831 ft 458 kts 86°
2026-04-16 09:23 62.01348 -137.17872 28449 ft 453 kts 87°
2026-04-16 09:24 62.01298 -137.11194 28050 ft 449 kts 87°
2026-04-16 09:24 62.01247 -137.04669 27665 ft 444 kts 87°
2026-04-16 09:24 62.01192 -136.98099 27276 ft 441 kts 87°
2026-04-16 09:24 62.01134 -136.91597 26872 ft 437 kts 88°
2026-04-16 09:25 62.01074 -136.85152 26509 ft 433 kts 88°
2026-04-16 09:25 62.01012 -136.78766 26119 ft 430 kts 88°
2026-04-16 09:25 62.00947 -136.72433 25736 ft 426 kts 88°
2026-04-16 09:25 62.00880 -136.66160 25400 ft 422 kts 89°
2026-04-16 09:26 62.00811 -136.59992 25031 ft 419 kts 89°
2026-04-16 09:26 62.00740 -136.53831 24641 ft 415 kts 89°
2026-04-16 09:26 62.00667 -136.47714 24275 ft 411 kts 89°
2026-04-16 09:26 62.00591 -136.41644 23915 ft 408 kts 90°
2026-04-16 09:27 62.00513 -136.35610 23549 ft 404 kts 90°
2026-04-16 09:27 62.00433 -136.29660 23137 ft 400 kts 90°
2026-04-16 09:27 62.00354 -136.23843 22782 ft 394 kts 90°
2026-04-16 09:27 62.00272 -136.18033 22425 ft 390 kts 90°
2026-04-16 09:28 62.00188 -136.12281 22076 ft 386 kts 90°
2026-04-16 09:28 61.99875 -136.06628 21700 ft 384 kts 107°
2026-04-16 09:28 61.98632 -136.01780 21410 ft 376 kts 133°
2026-04-16 09:28 61.97247 -135.98968 21413 ft 364 kts 145°
2026-04-16 09:29 61.95091 -135.96287 21385 ft 352 kts 162°
2026-04-16 09:29 61.92767 -135.94536 21102 ft 354 kts 165°
2026-04-16 09:29 61.90460 -135.92883 20723 ft 353 kts 165°
2026-04-16 09:29 61.88125 -135.91230 20370 ft 352 kts 165°
2026-04-16 09:30 61.85796 -135.89579 20019 ft 350 kts 165°
2026-04-16 09:30 61.83494 -135.87937 19677 ft 348 kts 165°
2026-04-16 09:30 61.81204 -135.86298 19337 ft 346 kts 165°
2026-04-16 09:30 61.78961 -135.84684 18994 ft 344 kts 165°
2026-04-16 09:31 61.76690 -135.83049 18652 ft 343 kts 165°
2026-04-16 09:31 61.74435 -135.81424 18319 ft 341 kts 164°
2026-04-16 09:31 61.72191 -135.79808 17943 ft 340 kts 164°
2026-04-16 09:31 61.69978 -135.78216 17582 ft 338 kts 164°
2026-04-16 09:32 61.67758 -135.76622 17237 ft 336 kts 164°
2026-04-16 09:32 61.65537 -135.75029 16909 ft 334 kts 164°
2026-04-16 09:32 61.63355 -135.73463 16756 ft 328 kts 164°
2026-04-16 09:32 61.61189 -135.71912 16343 ft 329 kts 164°
2026-04-16 09:33 61.59052 -135.70386 16034 ft 326 kts 164°
2026-04-16 09:33 61.56906 -135.68856 15699 ft 325 kts 164°
2026-04-16 09:33 61.54766 -135.67332 15374 ft 323 kts 164°
2026-04-16 09:33 61.52667 -135.65839 15059 ft 322 kts 164°
2026-04-16 09:34 61.50542 -135.64330 14735 ft 320 kts 164°
2026-04-16 09:34 61.48433 -135.62834 14420 ft 319 kts 164°
2026-04-16 09:34 61.46325 -135.61341 14093 ft 318 kts 163°
2026-04-16 09:34 61.44254 -135.59877 13777 ft 317 kts 163°
2026-04-16 09:35 61.42157 -135.58396 13419 ft 317 kts 163°
2026-04-16 09:35 61.40071 -135.56924 13077 ft 315 kts 163°
2026-04-16 09:35 61.37998 -135.55463 12767 ft 313 kts 163°
2026-04-16 09:35 61.35940 -135.54015 12444 ft 311 kts 163°
2026-04-16 09:36 61.33919 -135.52596 12123 ft 310 kts 163°
2026-04-16 09:36 61.31881 -135.51166 11811 ft 308 kts 163°
2026-04-16 09:36 61.29848 -135.49743 11495 ft 307 kts 163°
2026-04-16 09:36 61.27829 -135.48331 11182 ft 305 kts 163°
2026-04-16 09:37 61.25824 -135.46933 10870 ft 304 kts 163°
2026-04-16 09:37 61.23820 -135.45534 10567 ft 303 kts 163°
2026-04-16 09:37 61.21834 -135.44147 10390 ft 297 kts 163°
2026-04-16 09:37 61.19934 -135.42822 10246 ft 286 kts 163°
2026-04-16 09:38 61.18074 -135.41527 10118 ft 276 kts 163°
2026-04-16 09:38 61.16271 -135.40274 9913 ft 270 kts 163°
2026-04-16 09:38 61.14477 -135.39307 9657 ft 263 kts 173°
2026-04-16 09:38 61.12689 -135.38661 9404 ft 260 kts 168°
2026-04-16 09:39 61.10972 -135.37589 9180 ft 262 kts 162°
2026-04-16 09:39 61.09245 -135.36295 8925 ft 267 kts 161°
2026-04-16 09:39 61.07474 -135.34920 8665 ft 275 kts 161°
2026-04-16 09:39 61.05681 -135.33526 8425 ft 273 kts 161°
2026-04-16 09:40 61.03942 -135.32176 8297 ft 262 kts 161°
2026-04-16 09:40 61.02260 -135.30876 8181 ft 251 kts 161°
2026-04-16 09:40 61.00658 -135.29644 8074 ft 241 kts 161°
2026-04-16 09:40 60.99134 -135.28471 8005 ft 229 kts 161°
2026-04-16 09:41 60.97667 -135.27338 7859 ft 223 kts 161°
2026-04-16 09:41 60.96208 -135.26212 7622 ft 223 kts 161°
2026-04-16 09:41 60.94774 -135.25102 7370 ft 221 kts 161°
2026-04-16 09:41 60.93342 -135.24003 7086 ft 216 kts 161°
2026-04-16 09:42 60.91943 -135.22924 6769 ft 211 kts 161°
2026-04-16 09:42 60.90608 -135.21890 6470 ft 199 kts 161°
2026-04-16 09:42 60.89353 -135.20922 6229 ft 183 kts 161°
2026-04-16 09:42 60.88217 -135.20044 5974 ft 165 kts 161°
2026-04-16 09:43 60.87136 -135.19217 5743 ft 167 kts 161°
2026-04-16 09:43 60.86046 -135.18386 5420 ft 166 kts 161°
2026-04-16 09:43 60.85005 -135.17573 5264 ft 161 kts 161°
2026-04-16 09:43 60.83946 -135.16753 5037 ft 162 kts 162°
2026-04-16 09:44 60.82899 -135.15944 4788 ft 158 kts 162°
2026-04-16 09:44 60.81890 -135.15173 4559 ft 149 kts 162°
2026-04-16 09:44 60.80941 -135.14434 4325 ft 146 kts 161°
2026-04-16 09:44 60.79985 -135.13700 4159 ft 147 kts 161°
2026-04-16 09:45 60.79014 -135.12941 3898 ft 149 kts 160°
2026-04-16 09:45 60.78071 -135.12203 3572 ft 142 kts 161°
2026-04-16 09:45 60.77149 -135.11496 3387 ft 143 kts 160°
2026-04-16 09:45 60.76211 -135.10778 3179 ft 141 kts 160°
2026-04-16 09:46 60.75314 -135.10086 3008 ft 135 kts 159°
2026-04-16 09:46 60.74445 -135.09414 2845 ft 132 kts 160°
2026-04-16 09:46 60.73596 -135.08771 2654 ft 132 kts 159°
2026-04-16 09:46 60.72747 -135.08101 2463 ft 130 kts 159°
2026-04-16 09:47 60.71905 -135.07456 2305 ft 126 kts 159°
2026-04-16 09:47 60.71202 -135.06917 2283 ft 86 kts 159°
2026-04-16 09:47 60.70786 -135.06597 2296 ft 42 kts 159°
2026-04-16 09:47 60.70531 -135.06401 2307 ft 39 kts 159°
2026-04-16 09:48 60.70280 -135.06208 2324 ft 37 kts 159°
2026-04-16 09:48 60.70101 -135.06168 2324 ft 20 kts 249°
2026-04-16 09:48 60.70175 -135.06397 2322 ft 20 kts 311°
2026-04-16 09:48 60.70280 -135.06573 2323 ft 18 kts 341°
2026-04-16 09:49 60.70410 -135.06674 2314 ft 22 kts 340°
2026-04-16 09:49 60.70551 -135.06781 2313 ft 21 kts 339°
2026-04-16 09:49 60.70688 -135.06887 2311 ft 21 kts 339°
2026-04-16 09:49 60.70824 -135.06993 2310 ft 22 kts 339°
2026-04-16 09:50 60.70958 -135.07095 2303 ft 22 kts 339°
2026-04-16 09:50 60.71077 -135.07188 2304 ft 16 kts 339°
2026-04-16 09:50 60.71181 -135.07243 2291 ft 15 kts 355°
2026-04-16 09:50 60.71286 -135.07267 2289 ft 15 kts 348°
2026-04-16 09:51 60.71379 -135.07332 2286 ft 13 kts 338°
2026-04-16 09:51 60.71433 -135.07423 2289 ft 8 kts 270°
2026-04-16 09:51 60.71427 -135.07500 2284 ft 0 kts 262°